Manhattan Regional Airport
KMHK : now visible

Airfield :











YOU CAN JOIN US ON...

 
LOGIN :

Register | Disclaimer

   EN    FR    IT 

 









Legend :    VFR   Marginal VFR   IFR   Intensive IFR   Very Intensive IFR
Visi :
Ceiling :
>= 8 km
>= 3000ft
5 to 8 km
1000 to 3000 ft
1500m to 5 km
500 to 1000 ft
800 to 1500m
200 to 500 ft
< 800m
< 200 ft
Symbols :   Thunderstorms  Fog  Heavy snow  Heavy precipitations  Wind > 20 kt






- Airport Elevation : 1057 ft
- IATA code : MHK


KMHK - Manhattan Regional

CURRENT METAR :
  • 190252Z VRB05KT 10SM CLR 14/00 A2980 RMK AO2 SLP091 T01390000 53021

EXPIRED METARs :
  • 190152Z 29006KT 10SM CLR 16/01 A2978 RMK AO2 SLP082 T01560006
  • 190052Z 27007KT 10SM CLR 14/01 A2976 RMK AO2 SLP077 T01440011

TAF KMHK
Valid from the 19 at 00:00 until the 20 at 00:00 UTC


182321Z 1900/1924 28006KT P6SM FEW200
FM190200 30005KT P6SM SKC WS010/34040KT
FM190700 30006KT P6SM SKC



MET'MAP, your aeronautical weather chart ! - Copyright ORBIFLY December 2007 - Disclaimer

ORBIFLY MET'MAP TEAM :

Programming & Development : Alexandra Zaïnal
Concept & Development : Baudouin d'Aumeries
Co-Development & Prog : Marc-Olivier Méhu
Technical & hardware support : Manuel Goepfert

Contact : metmap@orbifly.com




SOURCES & CREDITS :

   NOAA       Earth
Advisory